SCP
0 0 0 0 0 0 0 0 0 0 0 0 0 0 0 0 1 1 1 1 1 1 1 1 1 1 1 1 1 1 1 1 1 1 1 1 1 0 1 1 1 1 1 1
0 0 0 0 0 0 0 0 0 0 0 0 0 0 0 0 0 1 1 1 1 1 1 1 1 1 1 1 1 1 1 1 1 1 1 1 1 1 0 1 1 1 1 1
0 0 0 0 0 0 0 0 0 0 0 0 0 0 0 0 0 1 1 1 1 1 1 1 1 1 1 1 1 1 0 0 1 1 1 1 1 1 0 0 1 1 1 1
0 0 0 0 0 0 0 0 0 0 0 0 0 0 0 0 0 0 1 1 1 1 1 1 1 1 1 1 1 0 0 0 0 0 1 1 1 1 1 0 0 0 0 0
0 0 0 0 0 0 0 0 0 0 0 0 0 0 0 0 0 0 1 1 1 1 1 1 1 1 1 1 1 1 0 0 0 0 0 1 1 1 1 1 0 0 0 0
0 0 0 0 0 0 0 0 0 0 0 0 0 0 0 0 0 0 1 1 1 1 1 1 1 1 1 1 1 1 0 0 0 0 1 1 1 1 1 0 0 0 0 0
0 0 0 0 0 0 0 0 0 0 0 0 0 0 0 0 0 0 0 1 1 1 1 1 1 1 1 1 1 1 1 0 0 1 1 1 1 1 0 0 0 0 0 0
0 0 0 0 0 0 0 0 0 0 0 0 0 0 0 0 0 0 0 1 1 1 1 1 1 1 1 1 1 1 1 1 1 1 1 1 1 1 1 1 0 0 0 0
0 0 0 0 0 0 0 0 0 0 0 0 0 0 0 0 0 0 1 1 1 1 1 1 1 1 1 1 1 1 1 1 1 1 1 1 1 1 1 1 1 1 0 0
0 0 0 0 0 0 0 0 0 0 0 0 0 0 0 0 0 0 1 1 1 1 1 1 1 1 1 1 1 1 1 1 1 1 1 1 1 1 1 1 1 1 1 0
0 0 0 0 0 0 0 0 0 0 0 0 0 0 0 0 0 0 1 1 1 1 1 1 1 1 1 1 1 1 1 1 1 1 1 1 1 1 1 1 1 1 0 0
0 0 0 0 0 0 0 0 0 0 0 0 0 0 0 0 0 0 1 1 1 1 1 1 1 1 1 1 1 2 2 2 2 2 2 2 1 1 1 0 0 0 0 0
0 0 0 0 0 0 0 0 0 0 0 0 0 0 0 0 0 0 0 1 1 1 1 1 1 1 1 1 2 2 2 2 2 2 2 2 2 1 1 0 0 0 0 0
0 0 0 0 0 0 0 0 0 0 0 0 0 0 0 0 0 0 0 0 1 1 1 1 1 1 1 2 2 2 2 2 2 2 2 2 2 2 1 1 0 0 0 0
0 0 0 0 0 0 0 0 0 0 0 0 0 0 0 0 0 0 0 0 0 1 1 1 1 1 2 2 2 2 2 2 2 1 1 1 1 1 1 1 1 0 0 0
0 0 0 0 0 0 0 0 0 0 0 0 0 0 0 0 0 0 0 0 0 1 1 1 1 2 2 2 2 2 1 1 1 0 0 1 1 1 1 1 1 0 0 0
0 0 0 0 0 0 0 0 0 0 0 0 0 0 0 0 0 0 0 0 1 1 1 1 1 2 1 1 1 1 1 0 0 0 0 0 0 0 0 0 1 1 0 0
0 0 0 0 0 0 0 0 0 0 0 0 0 0 0 0 0 0 0 0 1 1 1 1 1 1 1 1 1 0 0 0 0 0 0 0 0 0 0 0 1 0 0 0
0 0 0 0 0 0 0 0 0 0 0 0 0 0 0 0 0 0 0 0 1 1 1 1 1 1 1 0 0 0 0 0 0 0 0 0 0 0 0 0 0 0 0 0
0 0 0 0 0 0 0 0 0 0 0 0 0 0 0 0 0 0 0 0 0 0 0 0 0 0 0 0 0 0 0 0 0 0 0 0 0 0 0 0 0 0 0 0
0 0 0 0 0 0 0 0 0 0 0 0 0 0 0 0 0 0 0 0 0 0 0 0 1 1 1 0 0 0 0 0 0 0 0 0 0 0 0 0 0 0 0 0
0 0 0 0 0 0 0 0 0 0 0 0 0 0 0 0 0 0 0 0 0 0 0 1 1 1 1 1 1 1 1 0 0 0 0 0 0 0 0 0 0 0 0 0
0 0 0 0 0 0 0 0 0 0 0 0 0 0 0 0 0 0 0 0 0 0 0 1 1 1 1 1 1 1 1 1 1 1 1 1 0 0 0 0 0 0 0 0
0 0 0 0 0 0 0 0 0 0 0 0 0 0 0 0 0 0 0 0 0 0 0 1 1 1 1 2 2 1 1 1 1 1 1 1 1 1 0 0 0 0 0 0
0 0 0 0 0 0 0 0 0 0 0 0 0 0 0 0 0 0 0 0 0 0 0 1 1 1 2 2 2 2 1 1 1 1 1 1 1 1 1 1 1 0 0 0
0 0 0 0 0 0 0 0 0 0 0 0 0 0 0 0 0 0 0 0 0 0 0 0 1 1 2 2 2 1 1 1 1 1 1 1 1 1 1 1 1 1 0 0
0 0 0 0 0 0 0 0 0 0 0 0 0 0 0 0 0 0 0 0 0 0 0 0 0 1 1 1 1 1 0 0 0 0 0 0 1 1 1 1 0 0 0 0
Wind_Speed
11 10 8 9 9 8 9 9 8 6 4 3 3 2 3 3 3 4 3 1 2 2 2 2 2 2 2 2 2 3 2 3 3 2 2 2 2 2 2 2 2 2 2 2
11 11 11 11 9 10 10 9 9 7 4 3 3 3 3 4 4 4 3 2 2 1 1 2 2 2 2 2 2 2 2 2 2 2 2 2 2 2 2 2 2 2 2 2
10 10 10 10 7 6 5 5 5 4 2 3 3 4 4 4 4 4 5 4 3 2 1 1 1 2 2 2 2 2 2 1 1 1 1 2 2 2 2 2 2 2 2 2
8 9 11 3 3 2 1 1 2 2 3 3 2 1 2 3 4 4 4 4 3 3 3 2 0 0 0 1 2 1 1 1 1 1 1 1 2 3 3 3 3 3 2 2
6 8 8 4 1 1 2 1 1 2 3 3 3 1 2 4 4 4 4 3 3 3 2 2 2 1 0 1 1 1 1 1 1 1 1 1 2 3 3 2 2 3 3 3
6 7 7 1 3 3 2 1 2 3 2 2 3 1 2 4 4 4 5 4 4 3 2 2 2 1 0 1 0 1 1 1 1 2 2 2 2 2 2 2 2 2 2 2
9 9 4 2 2 1 1 2 4 4 3 3 2 2 3 3 4 4 4 4 4 3 3 3 2 1 1 1 1 1 1 1 1 2 2 2 2 1 1 2 2 2 2 2
6 7 3 2 1 2 3 4 3 4 4 4 4 3 3 4 4 3 4 4 4 3 3 2 2 2 2 2 1 1 1 2 1 1 2 1 2 1 1 2 2 2 2 2
2 1 3 3 3 4 4 3 3 4 4 5 5 4 3 2 3 3 3 3 3 3 3 3 3 2 2 2 1 1 1 1 1 2 2 2 2 2 2 2 2 2 2 2
4 2 1 2 3 3 3 3 4 4 4 4 4 5 4 3 2 2 3 3 3 3 3 3 4 3 3 3 2 2 2 2 2 2 2 1 1 2 2 2 2 2 3 3
7 4 1 0 2 2 3 3 3 4 4 4 4 5 5 4 3 1 1 2 2 2 3 3 4 3 4 4 3 2 2 2 2 2 2 2 2 1 2 2 2 3 3 3
5 4 3 2 1 2 2 3 3 4 5 4 4 5 5 4 3 2 2 2 2 2 2 3 4 4 4 4 3 3 2 2 1 1 1 2 1 1 0 1 2 2 2 2
5 5 4 3 2 2 2 3 4 4 5 5 4 4 5 4 3 3 3 3 3 2 2 3 3 4 4 4 4 3 3 2 1 1 1 1 1 2 1 1 1 1 2 3
3 3 4 3 2 2 3 4 4 4 4 3 3 4 4 3 3 3 3 3 3 2 3 3 3 3 4 4 4 4 3 2 2 1 1 1 1 1 1 2 1 1 1 2
4 4 4 3 2 3 3 3 4 4 4 3 2 2 3 3 3 3 3 3 3 3 3 3 3 3 3 4 4 4 3 2 1 1 1 1 1 1 1 1 1 1 0 1
4 4 4 4 4 4 3 4 4 4 3 3 2 2 2 2 3 3 3 3 3 3 3 3 3 2 3 4 4 3 2 3 3 2 1 1 1 1 1 1 1 1 1 1
5 5 5 4 4 4 4 3 3 3 3 3 2 2 2 2 2 3 3 3 3 3 3 3 3 2 3 3 3 2 2 2 4 3 2 2 1 1 1 1 1 1 1 1
4 5 5 4 3 3 4 3 3 3 2 2 2 2 2 2 3 3 3 3 3 3 3 3 2 2 2 2 2 2 2 2 2 2 2 2 2 1 1 1 1 1 1 1
3 3 4 4 3 3 3 3 3 3 2 2 2 2 2 2 2 2 3 4 4 3 3 2 4 3 2 3 3 1 2 2 2 2 2 2 2 1 1 1 1 1 1 1
3 3 3 3 3 3 3 3 3 3 2 2 2 2 3 3 3 3 3 3 2 2 3 3 3 2 2 3 3 2 2 2 2 2 2 2 1 1 1 1 1 1 1 1
4 4 4 3 3 3 3 3 3 3 3 3 3 3 3 3 3 3 3 2 2 2 3 4 2 2 2 3 3 2 2 2 2 2 2 2 2 1 1 1 1 1 1 1
3 3 3 3 3 3 2 3 3 3 3 3 3 3 3 3 3 3 3 2 2 2 2 2 2 3 4 4 2 2 2 2 2 2 1 1 2 2 2 2 1 1 1 1
3 3 3 3 3 3 3 3 4 3 3 3 3 3 3 3 3 3 3 2 1 3 3 2 3 5 6 3 2 2 3 3 2 2 2 2 2 2 2 2 2 1 1 1
4 4 4 3 3 3 4 4 3 2 2 3 3 3 3 3 3 2 2 2 3 4 3 3 5 6 6 2 2 2 3 2 2 2 2 2 2 2 2 2 2 2 2 2
4 4 4 3 3 3 3 2 2 2 2 2 2 3 2 2 2 2 2 2 3 4 3 4 6 6 4 2 2 2 2 2 3 2 2 2 2 2 2 2 2 2 2 2
4 3 3 3 3 2 2 1 1 1 1 2 2 2 2 2 2 2 2 2 3 4 3 2 3 4 2 2 2 2 2 2 3 2 2 2 3 3 2 2 3 2 2 2
4 3 2 2 2 2 1 2 2 2 2 2 2 2 2 2 2 2 3 2 2 2 2 2 2 2 2 2 2 2 2 2 2 2 2 2 2 2 2 3 2 2 2 2
Wind_Direction
282 292 294 289 281 271 266 273 279 290 295 339 37 25 358 41 41 42 21 21 89 116 140 158 169 170 168 176 179 170 178 209 218 201 200 207 190 183 177 186 207 211 207 200
279 279 283 283 275 272 268 274 280 280 282 10 35 26 24 33 35 27 22 45 56 95 134 176 176 172 182 183 189 183 195 218 217 207 201 200 184 176 180 196 209 209 213 200
280 285 283 265 265 265 266 286 288 289 326 42 35 13 19 22 24 36 20 15 17 6 340 203 199 196 188 186 178 191 187 193 201 219 211 191 192 190 187 194 198 203 209 197
276 278 265 268 34 9 287 304 344 356 46 41 354 340 41 40 30 22 14 10 0 353 352 339 320 73 142 185 177 178 156 182 218 215 211 193 188 200 201 201 196 200 211 205
269 271 266 254 312 317 274 271 30 358 20 13 335 296 61 41 30 15 4 359 352 350 347 343 348 12 149 232 187 154 149 220 231 206 199 206 205 205 205 208 208 201 199 203
261 267 272 350 46 357 285 230 57 43 22 350 334 313 359 15 15 17 12 4 1 357 354 356 347 359 32 262 269 222 207 215 219 200 194 209 215 210 213 207 205 200 197 193
253 259 265 61 53 341 295 35 37 29 15 11 358 3 359 10 14 20 6 2 2 3 2 351 346 348 302 279 265 265 255 237 214 188 186 198 193 199 205 194 185 194 195 198
246 253 244 93 46 24 47 43 22 15 10 6 7 9 16 11 8 9 3 359 360 359 358 345 337 340 312 284 265 246 233 216 206 196 195 198 176 202 203 190 191 197 195 205
296 340 69 58 51 44 36 21 5 2 5 356 349 346 345 352 353 359 354 346 351 351 345 340 340 331 308 301 287 253 244 221 213 211 202 194 184 191 201 196 198 200 198 205
281 223 130 85 65 51 30 16 2 352 342 334 325 328 329 336 332 344 343 337 342 340 339 340 337 330 325 312 296 276 257 241 221 217 216 200 183 186 194 199 197 196 201 209
271 276 278 3 32 42 24 5 343 331 324 316 315 317 316 314 313 325 326 329 334 326 327 328 328 333 332 327 318 284 266 254 229 213 205 198 187 192 198 202 198 200 206 198
269 284 288 299 3 357 332 320 319 315 310 308 303 306 310 308 320 332 328 323 317 324 328 323 327 331 327 326 324 311 288 273 265 224 201 193 182 174 310 220 213 206 199 198
285 302 302 296 286 306 307 305 306 304 299 306 313 314 311 311 326 332 325 319 315 323 326 325 327 328 331 333 326 312 302 301 300 288 248 214 199 193 216 319 4 231 208 204
285 288 282 284 280 291 288 296 302 302 306 308 321 327 324 322 325 328 321 316 318 319 316 324 331 332 334 333 330 314 310 313 311 279 267 248 238 228 214 206 216 266 252 218
261 260 261 264 260 267 275 279 288 296 303 311 324 324 329 330 326 323 321 319 321 319 321 325 329 333 337 330 320 314 310 309 303 288 269 256 252 243 233 232 220 214 178 205
263 263 253 243 241 252 259 264 273 284 298 308 312 312 322 325 315 313 320 326 320 314 315 319 321 330 334 323 314 313 310 317 320 296 272 258 245 240 234 225 226 214 212 196
250 255 255 250 245 251 255 261 270 281 289 297 303 312 310 308 308 313 319 319 307 300 306 312 318 331 333 329 320 311 309 303 311 307 291 277 264 251 233 221 232 234 232 207
248 258 264 253 249 258 264 266 272 276 283 301 303 290 286 293 303 315 321 322 318 311 312 314 334 337 331 330 320 310 311 305 298 293 295 296 292 275 252 237 238 243 254 211
253 262 276 266 253 253 256 264 275 283 284 277 282 291 300 302 302 304 310 314 314 316 320 333 336 331 321 316 319 290 295 301 302 301 297 299 300 305 297 263 253 244 219 195
264 266 273 271 262 258 257 260 268 271 276 277 279 287 297 305 308 300 295 298 298 299 313 330 324 307 303 307 320 290 281 287 291 295 307 312 309 306 302 295 278 264 251 216
265 268 270 269 263 261 259 259 260 263 265 266 270 276 283 291 297 295 290 287 292 319 322 324 322 304 301 311 303 289 286 286 283 282 287 290 289 286 293 298 298 289 274 257
272 268 266 270 264 259 261 266 262 260 261 266 274 282 285 285 287 288 281 269 271 309 308 301 302 306 310 309 281 281 283 283 280 275 273 277 282 285 285 290 289 294 299 288
285 280 271 265 262 261 261 263 260 256 260 266 269 274 279 285 283 278 279 281 277 299 298 284 296 305 304 294 273 271 274 272 270 270 271 270 270 273 273 274 276 277 271 271
271 269 267 263 260 257 258 260 264 264 266 270 271 270 273 278 279 280 286 297 292 289 286 283 290 293 289 265 258 264 270 271 269 268 269 270 271 271 269 267 264 263 259 263
273 271 265 257 253 252 255 261 266 265 271 273 280 286 289 280 277 286 290 288 287 287 280 282 291 291 281 263 256 256 261 266 271 273 268 269 266 265 267 268 264 263 264 260
274 270 263 255 253 252 252 256 264 271 277 278 282 289 296 296 296 297 288 287 291 294 291 286 285 280 273 278 272 264 256 265 272 271 271 274 268 265 265 266 270 267 264 261
270 264 259 257 250 243 244 247 250 256 263 268 275 282 290 294 298 298 297 296 298 296 296 294 292 292 289 283 280 278 277 276 274 272 277 281 283 280 275 271 271 271 270 264